Weather in Sadovyy

Russia / Novosibirsk Oblast     55°08′37″N   82°57′15″E
temp.,
°C
wind,
m/s
gust,
m/s
humid.,
%
clouds,
%
prec.,
mm/h
press.,
hPa
HPBL,
m
27 february, sat
sat2701:00−25sw51196100 0.1 1034632
04:00−25sw51096100 0.2 1035521
07:00−25sw4997100 0.4 1036455
10:00−25sw5895100 0.1 1036489
13:00−23sw4792100 0.2 1036606
16:00−22sw4691100 0.1 1037623
19:00−25sw3496100 0.1 103762
22:00−28sw339972 0.0 103847
28 february, sun
sun2801:00−30ssw349977 0.0 103961
04:00−31ssw349829 0.0 103866
07:00−31s349737 0.0 103964
10:00−27s469650 0.0 1038189
13:00−20sse469262 0.0 1035345
16:00−17sse368991 0.0 1032437
19:00−18se339396 0.0 102954
22:00−15se3796100 0.1 1026230
1 march, mon
mon101:00−14se3995100 0.4 1023270
04:00−11se41094100 0.4 1019370
07:00−9se41095100 1.4 1015498
10:00−7se51095100 1.5 1012550
13:00−3se5996100 3.7 1009515
16:000sw59100100 4.3 1007526
19:000sw51098100 7.7 1005621
22:00−1w51098100 2.9 1006569
2 march, tue
tue201:00−10nne2497100 3.9 100798
04:00−11ne2296100 0.3 101068
07:00−13n2296100 0.7 101256
10:00−14nnw239697 0.1 1015160
13:00−12w358998 0.3 1017542
16:00−11wsw4590100 0.1 1018618
19:00−14sw2396100 0.3 101848
22:00−17ssw229894 0.1 101820
3 march, wed
wed301:00−17s129797 0.1 101720
04:00−16ese1197100 0.1 101620
07:00−16e129699 0.3 101620
10:00−14ne129597 0.2 1015139
13:00−11nne119098 0.6 1016355
16:00−10wnw2290100 0.4 1017366
19:00−13wsw239698 0.6 102068
22:00−16sw229782 0.0 102220